This is the latest recevied weather packets stored in our database for station/object OE3FJB-25. If no packets are shown the sender has not sent any weather packets the latest 10 day(s).
| Time | Temp. | Humidity | Pressure | Rain* | Wind** | Luminosity | Snow |
|---|---|---|---|---|---|---|---|
| 1777461539 | 12.78° C | 32% | 1025.4 hPa | - | - | - | - |
| 1777460940 | 12.78° C | 32% | 1025.3 hPa | - | - | - | - |
| 1777460341 | 12.22° C | 34% | 1025.6 hPa | - | - | - | - |
| 1777459743 | 11.11° C | 35% | 1025.5 hPa | - | - | - | - |
| 1777459144 | 10.56° C | 36% | 1025.5 hPa | - | - | - | - |
| 1777458545 | 10° C | 37% | 1025.6 hPa | - | - | - | - |
| 1777457947 | 10° C | 38% | 1025.6 hPa | - | - | - | - |
| 1777457348 | 10° C | 38% | 1025.7 hPa | - | - | - | - |
| 1777456749 | 10.56° C | 38% | 1025.6 hPa | - | - | - | - |
| 1777456151 | 11.11° C | 38% | 1025.6 hPa | - | - | - | - |
| 1777455552 | 10.56° C | 39% | 1025.6 hPa | - | - | - | - |
| 1777454953 | 10° C | 40% | 1025.7 hPa | - | - | - | - |
| 1777454355 | 10° C | 40% | 1025.6 hPa | - | - | - | - |
| 1777453756 | 10° C | 40% | 1025.6 hPa | - | - | - | - |
| 1777453157 | 10° C | 43% | 1025.6 hPa | - | - | - | - |
| 1777452558 | 8.33° C | 44% | 1025.7 hPa | - | - | - | - |
| 1777451960 | 7.78° C | 44% | 1025.7 hPa | - | - | - | - |
| 1777451361 | 7.78° C | 46% | 1025.7 hPa | - | - | - | - |
| 1777450762 | 7.78° C | 46% | 1025.6 hPa | - | - | - | - |
| 1777450164 | 7.22° C | 48% | 1025.6 hPa | - | - | - | - |
| 1777449565 | 7.22° C | 49% | 1025.5 hPa | - | - | - | - |
| 1777448966 | 6.67° C | 50% | 1025.4 hPa | - | - | - | - |
| 1777448368 | 6.67° C | 50% | 1025.4 hPa | - | - | - | - |
| 1777447769 | 6.67° C | 51% | 1025.4 hPa | - | - | - | - |
| 1777447170 | 6.67° C | 53% | 1025.3 hPa | - | - | - | - |
* Rain since midnight (hover to see other rain measurements)
** Current wind speed in m/s (hover to see current wind gust speed)